AirNav   Phillips 66 Aviation Fuel
 
 408 users online  

KMIO Miami Regional Airport
Miami, Oklahoma, USA

GOING TO MIAMI?


FAA INFORMATION EFFECTIVE 06 DECEMBER 2018

Location

FAA Identifier: MIO
Lat/Long: 36-54-33.2000N / 094-53-15.0000W
36-54.553333N / 094-53.250000W
36.9092222 / -94.8875000
(estimated)
Elevation: 806.4 ft. / 245.8 m (surveyed)
Variation: 05E (1985)
From city: 2 miles NW of MIAMI, OK
Time zone: UTC -6 (UTC -5 during Daylight Saving Time)
Zip code: 74354

Airport Operations

Airport use: Open to the public
Activation date: 12/1937
Control tower: no
ARTCC: KANSAS CITY CENTER
FSS: MC ALESTER FLIGHT SERVICE STATION
NOTAMs facility: MLC (NOTAM-D service available)
Attendance: 0800-1700
ARPT UNATNDD THANKSGIVING & CHRISTMAS.
Wind indicator: lighted
Segmented circle: yes
Lights: DUSK-DAWN. ACTVT ODALS RWY 17; REIL RWY 35; MIRL RWY 17/35 - CTAF.
Beacon: white-green (lighted land airport)
Operates sunset to sunrise.

Airport Communications

CTAF/UNICOM: 122.8
WX AWOS-3 at GMJ (20 nm S): 119.025 (918-786-8350)
  • APCH/DEP SERVICE PROVIDED BY KANSAS CITY ARTCC ON FREQS 128.6/282.325 (EDNA RCAG).

Nearby radio navigation aids

VOR radial/distance  VOR name  Freq  Var
OSWr127/21.2OSWEGO VOR/DME117.6008E
EOSr273/22.1NEOSHO VOR/DME117.3007E

 
NDB name  Hdg/Dist  Freq  Var  ID
COFFEYVILLE104/34.621205ECFV -.-. ..-. ...-

Airport Services

Fuel available: 100LL JET-A
Parking: hangars and tiedowns
Airframe service: MAJOR
Powerplant service: MAJOR
Bottled oxygen: NONE
Bulk oxygen: NONE

Runway Information

Runway 17/35

Dimensions: 5020 x 100 ft. / 1530 x 30 m
Surface: asphalt, in excellent condition
Weight bearing capacity: 
Single wheel: 23.0
Runway edge lights: medium intensity
RUNWAY 17  RUNWAY 35
Latitude: 36-54.966527N36-54.139247N
Longitude: 094-53.246198W094-53.253862W
Elevation: 806.3 ft.799.6 ft.
Gradient: 0.2%0.2%
Traffic pattern: rightleft
Runway heading: 175 magnetic, 180 true355 magnetic, 000 true
Markings: nonprecision, in good conditionnonprecision, in good condition
Visual slope indicator: 4-light PAPI on left (3.00 degrees glide path)4-light PAPI on left (3.00 degrees glide path)
Approach lights: ODALS: omnidirectional approach lighting system
Runway end identifier lights: yes
Touchdown point: yes, no lightsyes, no lights
Obstructions: 50 ft. trees, 1550 ft. from runway, 27:1 slope to clearnone

Airport Ownership and Management from official FAA records

Ownership: Publicly-owned
Owner: CITY OF MIAMI
CITY HALL PO BOX 1288
MIAMI, OK 74355
Phone 918-542-6685
Manager: THOMAS ANDERSON
2600 REX PLOTT DR
MIAMI, OK 74355
Phone (918) 541-2303
ALTERNATE PHONE # 918-919-4636.

Airport Operational Statistics

Aircraft based on the field: 27
Single engine airplanes: 24
Multi engine airplanes: 3
    
Aircraft operations: avg 33/day *
67% transient general aviation
33% local general aviation
* for 12-month period ending 16 December 2015

Instrument Procedures

NOTE: All procedures below are presented as PDF files. If you need a reader for these files, you should download the free Adobe Reader.

NOT FOR NAVIGATION. Please procure official charts for flight.
FAA instrument procedures published for use from 6 December 2018 at 0901Z to 3 January 2019 at 0900Z.

 
IAPs - Instrument Approach Procedures
RNAV (GPS) RWY 17   download (194KB)
VOR/DME-A   download (132KB)
NOTE: Special Take-Off Minimums/Departure Procedures apply   download (202KB)

Other nearby airports with instrument procedures:

KGMJ - Grove Municipal Airport (20 nm S)
1K8 - South Grand Lake Regional Airport (23 nm S)
KJLN - Joplin Regional Airport (24 nm NE)
KEOS - Neosho Hugh Robinson Airport (25 nm E)
KPTS - Atkinson Municipal Airport (33 nm N)
 
Loc | Ops | Rwys | IFR | FBO | Links
Com | Nav | Svcs | Stats | Notes


 
Area around KMIO (Miami Regional Airport)
 
Road maps at: MapQuest Bing Google
 
Aerial photo
WARNING: Photo may not be current or correct
Aerial photo of KMIO (Miami Regional Airport)
Do you have a better or more recent aerial photo of Miami Regional Airport that you would like to share? If so, please send us your photo.

 
Sectional chart

 
Airport distance calculator
Flying to Miami Regional Airport? Find the distance to fly.

From to KMIO

Sunrise and sunset
Times for 12-Dec-2018
 Local
(UTC-6)
 Zulu
(UTC)
Morning civil twilight06:5512:55
Sunrise07:2413:24
Sunset17:0223:02
Evening civil twilight17:3123:31

Current date and time
Zulu (UTC)  12-Dec-2018 06:38:18
Local (UTC-6)  12-Dec-2018 00:38:18
 
METAR
KGMJ 
20nm S 
120615Z AUTO 21012G18KT 10SM CLR 11/01 A3000 RMK AO2
KJLN 
24nm NE 
120553Z AUTO 22018G34KT 10SM CLR 11/01 A2997 RMK AO2 PK WND 22034/0546 SLP146 T01110006 10122 20106 401441022 55002
KEOS 
25nm E 
SuperAWOS
120615Z AUTO 23009G20KT 10SM 10/03 A2998
KPTS 
33nm N 
120615Z AUTO 22014G21KT 10SM CLR 09/01 A2994 RMK AO2 T00890006
KCFV 
34nm W 
120552Z AUTO 20008KT 10SM CLR 09/01 A2997 RMK AO2 SLP152 T00890006 10133 20089 401561039 53001
KPPF 
39nm NW 
120552Z AUTO 22007KT CLR 09/01 A2997 RMK AO2 SLP149 T00890011 10122 20089 401441072 53003
TAF
KJLN 
24nm NE 
120520Z 1206/1306 21023G32KT P6SM BKN200 FM121000 22009KT P6SM SKC FM130300 14006KT P6SM BKN020 PROB30 1303/1306 4SM -RA OVC010
NOTAMs
Click for the latest NOTAMs
NOTAMs are issued by the DoD/FAA and will open in a separate window not controlled by AirNav.

 

 
 

FBO, Fuel Providers, and Aircraft Ground Support

  
 Business Name 
 
 Contact 
 
 Services / Description 
 
Fuel Prices
 
Comments
  
Miami Airport 918-541-2290
no information available

If you are affiliated with Miami Airport and would like to show here your services, contact info, web link, logo, and more, click here
100LL Jet A
FS $4.55 $4.70 
SS $4.45 $4.25 
 Updated 30-Nov-2018
 
   2 read write
FS=Full service
SS=Self service
Update Fuel Prices
 

Would you like to see your business listed on this page?

 If your business provides an interesting product or service to pilots, flight crews, aircraft, or users of the Miami Regional Airport, you should consider listing it here.  To start the listing process, click on the button below
 
Add a business
 

Other Pages about Miami Regional Airport

www.miamiokla.net/index.aspx?nid=125
 
Update a link
 
Copyright © AirNav, LLC. All rights reserved. Privacy Policy  Contact